Regional Weather Roundup
Issued by NWS

Home | Current Version | Previous Version | Text Only | Print | Product List | Glossary Off
Versions: 1 2 3 4 5 6 7 8 9 10 11 12 13 14 15 16 17 18 19 20 21 22 23 24 25 26 27 28 29 30 31 32 33 34 35 36 37 38 39 40 41 42 43 44 45 46 47 48 49 50

978
ASUS45 KCYS 242110
RWRWY

WYOMING REGIONAL WEATHER ROUNDUP
NATIONAL WEATHER SERVICE CHEYENNE WY
300 PM MDT SAT JUN 24 2017

NOTE:  "FAIR" INDICATES FEW OR NO CLOUDS BELOW 12,000 FEET
WITH NO SIGNIFICANT WEATHER AND/OR OBSTRUCTIONS TO VISIBILITY.

WYZ001-242200-
YELLOWSTONE NATIONAL PARK

CITY           SKY/WX    TMP DP  RH WIND       PRES   REMARKS
LK YELLOWSTONE   N/A     63  37  38 E5        30.43F
W YELLOWSTONE  NOT AVBL

$$
WYZ002>013-054>058-071-098>099-242200-
NORTHERN WYOMING

CITY           SKY/WX    TMP DP  RH WIND       PRES   REMARKS
JACKSON        SUNNY    N/A N/A N/A SW3       30.35R
CODY           FAIR      71  35  26 N9        30.32F
GREYBULL       FAIR      77  29  17 N10G20    30.25F
WORLAND        FAIR      74  33  22 VRB5      30.27F
SHERIDAN       FAIR      73  35  25 N8G17     30.31F
BUFFALO        CLOUDY    64  34  32 CALM      30.36F
GILLETTE       FAIR      72  30  21 NW15G24   30.31F
NEWCASTLE      FAIR      70  27  19 NW14G24   30.31S

$$
WYZ014>020-022>026-101>103-242200-
CENTRAL WYOMING

CITY           SKY/WX    TMP DP  RH WIND       PRES   REMARKS
BIG PINEY      FAIR      71  33  24 VRB5      30.36F
PINEDALE       FAIR      70  32  24 NW12      30.37F
DUBOIS         FAIR      64  30  27 SE16      30.36F
LANDER         FAIR      72  35  25 E12       30.30F
RIVERTON       FAIR      70  28  21 E8        30.32F
CASPER         FAIR      70  30  22 S7        30.32F
DOUGLAS        PTSUNNY   69  32  25 NW5       30.32F

$$
WYZ021-027>030-104>119-242200-
SOUTHERN WYOMING

CITY           SKY/WX    TMP DP  RH WIND       PRES   REMARKS
EVANSTON       FAIR      74  29  19 SE9       30.36F
KEMMERER         N/A     72  25  17 SW7       30.38F
FORT BRIDGER   FAIR      76  26  15 N7        30.38F
ROCK SPRINGS   FAIR      73  23  15 NW9       30.34F
DIXON          FAIR      76  25  15 NE6       30.34F
RAWLINS        FAIR      73  25  16 N13       30.36F
SARATOGA       FAIR      70  28  21 N9G17     30.37F
LARAMIE        FAIR      70  27  20 MISG      30.35F
CHEYENNE       PTSUNNY   69  38  32 VRB7      30.34F
TORRINGTON     PTSUNNY   73  30  20 N6        30.27F
PINE BLUFFS    FAIR      70  36  28 SE5       30.33S

$$




USA.gov is the U.S. government's official web portal to all federal, state and local government web resources and services.